AFL2818 URMM-USSS

Flight info

Callsign AFL2818
Flight time 2h 31m
Altitude 37000
Route UGBES G487 OBATA L988 ATR N60 AKB L992 NEBIS
Aircraft A320/M-SDE2E3FGHIJ1RWY/LB1U1

Departure

Time 2026-04-28 14:47
Airport Mineralnye Vody Airport (URMM)

Arrival

Time 2026-04-28 17:19
Airport Koltsovo Airport (USSS)
Time Latitude Longitude Altitude Speed Heading
2026-04-28 14:31 44.21728 43.09067 1051 ft 0 kts 212°
2026-04-28 14:36 44.21735 43.09074 1051 ft 3 kts 214°
2026-04-28 14:36 44.21752 43.09090 1051 ft 3 kts 220°
2026-04-28 14:36 44.21767 43.09109 1053 ft 3 kts 230°
2026-04-28 14:37 44.21778 43.09132 1053 ft 3 kts 252°
2026-04-28 14:37 44.21780 43.09154 1053 ft 2 kts 295°
2026-04-28 14:37 44.21779 43.09158 1053 ft 2 kts 300°
2026-04-28 14:38 44.21779 43.09159 1053 ft 0 kts 300°
2026-04-28 14:41 44.21782 43.09152 1051 ft 5 kts 300°
2026-04-28 14:41 44.21831 43.09052 1051 ft 18 kts 309°
2026-04-28 14:41 44.21901 43.08905 1051 ft 17 kts 302°
2026-04-28 14:42 44.21961 43.08770 1051 ft 16 kts 302°
2026-04-28 14:42 44.22007 43.08640 1051 ft 14 kts 283°
2026-04-28 14:42 44.22056 43.08509 1051 ft 18 kts 302°
2026-04-28 14:42 44.22121 43.08357 1051 ft 21 kts 300°
2026-04-28 14:43 44.22199 43.08190 1051 ft 21 kts 302°
2026-04-28 14:43 44.22290 43.07986 1051 ft 26 kts 302°
2026-04-28 14:43 44.22390 43.07763 1051 ft 27 kts 302°
2026-04-28 14:43 44.22492 43.07541 1051 ft 27 kts 302°
2026-04-28 14:44 44.22594 43.07315 1051 ft 25 kts 302°
2026-04-28 14:44 44.22666 43.07167 1051 ft 14 kts 318°
2026-04-28 14:44 44.22761 43.07126 1051 ft 15 kts 347°
2026-04-28 14:44 44.22828 43.07105 1051 ft 15 kts 347°
2026-04-28 14:45 44.22931 43.07071 1051 ft 15 kts 346°
2026-04-28 14:45 44.23018 43.07084 1051 ft 12 kts 53°
2026-04-28 14:45 44.23023 43.07215 1051 ft 14 kts 92°
2026-04-28 14:45 44.23018 43.07359 1052 ft 16 kts 93°
2026-04-28 14:46 44.23009 43.07514 1052 ft 17 kts 95°
2026-04-28 14:46 44.22997 43.07607 1052 ft 8 kts 122°
2026-04-28 14:46 44.22942 43.07723 1051 ft 34 kts 122°
2026-04-28 14:46 44.22680 43.08301 1051 ft 104 kts 122°
2026-04-28 14:47 44.22195 43.09364 1101 ft 150 kts 123°
2026-04-28 14:47 44.21644 43.10550 1853 ft 142 kts 122°
2026-04-28 14:47 44.21105 43.11728 2559 ft 145 kts 122°
2026-04-28 14:47 44.20570 43.12922 3262 ft 144 kts 123°
2026-04-28 14:48 44.20033 43.14114 3818 ft 150 kts 123°
2026-04-28 14:48 44.19436 43.15433 4097 ft 172 kts 122°
2026-04-28 14:48 44.18755 43.16936 4398 ft 195 kts 123°
2026-04-28 14:48 44.18039 43.18671 4701 ft 220 kts 110°
2026-04-28 14:49 44.17941 43.20901 5079 ft 248 kts 76°
2026-04-28 14:49 44.18932 43.22939 5738 ft 266 kts 38°
2026-04-28 14:49 44.20576 43.24187 6625 ft 272 kts 23°
2026-04-28 14:49 44.22355 43.25145 7485 ft 276 kts 18°
2026-04-28 14:50 44.24199 43.26013 8250 ft 284 kts 16°
2026-04-28 14:50 44.26067 43.26870 9044 ft 290 kts 16°
2026-04-28 14:50 44.28024 43.27793 9868 ft 296 kts 16°
2026-04-28 14:50 44.29968 43.28745 10455 ft 309 kts 16°
2026-04-28 14:51 44.32096 43.29813 10723 ft 332 kts 17°
2026-04-28 14:51 44.34283 43.30931 11239 ft 345 kts 17°
2026-04-28 14:51 44.36552 43.32108 11924 ft 350 kts 17°
2026-04-28 14:51 44.38849 43.33310 12662 ft 355 kts 17°
2026-04-28 14:52 44.41178 43.34531 13401 ft 360 kts 17°
2026-04-28 14:52 44.43535 43.35765 14106 ft 364 kts 17°
2026-04-28 14:52 44.45921 43.37014 14741 ft 368 kts 17°
2026-04-28 14:52 44.48335 43.38277 15360 ft 373 kts 17°
2026-04-28 14:53 44.50783 43.39560 15998 ft 377 kts 17°
2026-04-28 14:53 44.53253 43.40853 16619 ft 382 kts 16°
2026-04-28 14:53 44.55756 43.42162 17222 ft 386 kts 16°
2026-04-28 14:53 44.58286 43.43482 17839 ft 391 kts 16°
2026-04-28 14:54 44.60849 43.44820 18445 ft 395 kts 15°
2026-04-28 14:54 44.63439 43.46174 18982 ft 399 kts 15°
2026-04-28 14:54 44.66047 43.47542 19535 ft 403 kts 15°
2026-04-28 14:54 44.68686 43.48926 20079 ft 406 kts 16°
2026-04-28 14:55 44.71267 43.50617 20612 ft 415 kts 27°
2026-04-28 14:55 44.73626 43.53028 21159 ft 424 kts 39°
2026-04-28 14:55 44.75654 43.56076 21696 ft 431 kts 51°
2026-04-28 14:55 44.77254 43.59666 22232 ft 437 kts 63°
2026-04-28 14:56 44.78459 43.63610 22759 ft 441 kts 67°
2026-04-28 14:56 44.79633 43.67607 23289 ft 444 kts 67°
2026-04-28 14:56 44.80816 43.71642 23784 ft 448 kts 67°
2026-04-28 14:56 44.82008 43.75709 24195 ft 451 kts 67°
2026-04-28 14:57 44.83208 43.79807 24614 ft 454 kts 67°
2026-04-28 14:57 44.84007 43.82534 24884 ft 456 kts 67°
2026-04-28 14:57 44.85635 43.88084 25420 ft 460 kts 68°
2026-04-28 14:57 44.86843 43.92211 25801 ft 463 kts 68°
2026-04-28 14:58 44.88071 43.96415 26183 ft 466 kts 68°
2026-04-28 14:58 44.89306 44.00655 26552 ft 468 kts 68°
2026-04-28 14:58 44.90545 44.04922 26926 ft 471 kts 68°
2026-04-28 14:58 44.91786 44.09212 27303 ft 474 kts 68°
2026-04-28 14:59 44.93033 44.13532 27668 ft 477 kts 68°
2026-04-28 14:59 44.94285 44.17875 28029 ft 479 kts 68°
2026-04-28 14:59 44.95543 44.22247 28375 ft 482 kts 69°
2026-04-28 14:59 44.96805 44.26644 28724 ft 485 kts 69°
2026-04-28 15:00 44.98076 44.31068 29070 ft 487 kts 69°
2026-04-28 15:00 44.99354 44.35516 29404 ft 490 kts 69°
2026-04-28 15:00 45.00633 44.39986 29719 ft 492 kts 69°
2026-04-28 15:00 45.01918 44.44486 30034 ft 495 kts 69°
2026-04-28 15:01 45.03207 44.49007 30318 ft 497 kts 69°
2026-04-28 15:01 45.04499 44.53552 30584 ft 499 kts 69°
2026-04-28 15:01 45.05793 44.58117 30855 ft 501 kts 69°
2026-04-28 15:01 45.07090 44.62695 31112 ft 502 kts 69°
2026-04-28 15:02 45.08390 44.67294 31362 ft 504 kts 69°
2026-04-28 15:02 45.09692 44.71908 31602 ft 505 kts 70°
2026-04-28 15:02 45.10994 44.76526 31937 ft 505 kts 70°
2026-04-28 15:02 45.12293 44.81134 32284 ft 504 kts 70°
2026-04-28 15:03 45.13586 44.85735 32609 ft 503 kts 70°
2026-04-28 15:03 45.14877 44.90340 32945 ft 502 kts 70°
2026-04-28 15:03 45.16147 44.94877 33263 ft 502 kts 70°
2026-04-28 15:03 45.17431 44.99474 33590 ft 501 kts 70°
2026-04-28 15:04 45.18709 45.04060 33923 ft 500 kts 70°
2026-04-28 15:04 45.19985 45.08644 34248 ft 500 kts 70°
2026-04-28 15:04 45.21259 45.13228 34526 ft 499 kts 70°
2026-04-28 15:04 45.22528 45.17802 34793 ft 499 kts 70°
2026-04-28 15:05 45.23795 45.22377 35044 ft 498 kts 70°
2026-04-28 15:05 45.25060 45.26959 35154 ft 497 kts 70°
2026-04-28 15:05 45.26311 45.31506 35184 ft 492 kts 70°
2026-04-28 15:06 45.28816 45.40516 35178 ft 490 kts 69°
2026-04-28 15:06 45.31488 45.49419 35181 ft 490 kts 68°
2026-04-28 15:07 45.34222 45.58283 35181 ft 490 kts 68°
2026-04-28 15:07 45.36908 45.67189 35181 ft 490 kts 69°
2026-04-28 15:08 45.39547 45.76116 35180 ft 490 kts 69°
2026-04-28 15:08 45.42177 45.85063 35179 ft 490 kts 69°
2026-04-28 15:09 45.44812 45.94009 35177 ft 490 kts 69°
2026-04-28 15:09 45.47435 46.02895 35179 ft 490 kts 69°
2026-04-28 15:10 45.50063 46.11852 35181 ft 490 kts 69°
2026-04-28 15:10 45.52679 46.20825 35183 ft 490 kts 69°
2026-04-28 15:11 45.55287 46.29812 35182 ft 490 kts 69°
2026-04-28 15:11 45.57892 46.38795 35184 ft 490 kts 69°
2026-04-28 15:12 45.60494 46.47790 35184 ft 490 kts 69°
2026-04-28 15:12 45.63090 46.56798 35181 ft 490 kts 69°
2026-04-28 15:13 45.65678 46.65814 35182 ft 490 kts 69°
2026-04-28 15:13 45.68251 46.74843 35182 ft 490 kts 69°
2026-04-28 15:14 45.70819 46.83881 35184 ft 491 kts 69°
2026-04-28 15:14 45.73383 46.92926 35186 ft 491 kts 69°
2026-04-28 15:15 45.75922 47.01925 35187 ft 491 kts 70°
2026-04-28 15:15 45.78471 47.10995 35188 ft 491 kts 70°
2026-04-28 15:16 45.81009 47.20070 35189 ft 491 kts 70°
2026-04-28 15:16 45.83539 47.29156 35189 ft 491 kts 70°
2026-04-28 15:17 45.86067 47.38255 35191 ft 491 kts 70°
2026-04-28 15:17 45.88594 47.47354 35194 ft 491 kts 70°
2026-04-28 15:18 45.91109 47.56469 35194 ft 491 kts 70°
2026-04-28 15:18 45.93615 47.65597 35196 ft 491 kts 70°
2026-04-28 15:19 45.94258 47.67949 35195 ft 491 kts 70°
2026-04-28 15:19 45.96064 47.73759 35171 ft 486 kts 68°
2026-04-28 15:20 45.98538 47.82714 35168 ft 478 kts 72°
2026-04-28 15:20 46.00740 47.91589 35212 ft 479 kts 72°
2026-04-28 15:21 46.03061 48.00548 35209 ft 489 kts 71°
2026-04-28 15:21 46.05550 48.09683 35212 ft 491 kts 70°
2026-04-28 15:22 46.08052 48.18830 35213 ft 491 kts 70°
2026-04-28 15:22 46.10514 48.28000 35205 ft 490 kts 71°
2026-04-28 15:23 46.12956 48.37175 35206 ft 490 kts 71°
2026-04-28 15:23 46.15390 48.46355 35200 ft 490 kts 71°
2026-04-28 15:24 46.17813 48.55546 35196 ft 490 kts 71°
2026-04-28 15:24 46.19839 48.63181 35196 ft 490 kts 70°
2026-04-28 15:25 46.20748 48.66470 35187 ft 488 kts 69°
2026-04-28 15:25 46.22510 48.72661 35164 ft 484 kts 69°
2026-04-28 15:26 46.25097 48.81536 35190 ft 476 kts 69°
2026-04-28 15:26 46.27640 48.90375 35200 ft 482 kts 69°
2026-04-28 15:27 46.30199 48.99481 35198 ft 496 kts 69°
2026-04-28 15:27 46.32821 49.08846 35203 ft 508 kts 69°
2026-04-28 15:28 46.35492 49.18418 35195 ft 517 kts 69°
2026-04-28 15:28 46.38172 49.27578 35193 ft 521 kts 66°
2026-04-28 15:29 46.41254 49.37085 35198 ft 521 kts 65°
2026-04-28 15:29 46.44342 49.46512 35196 ft 521 kts 66°
2026-04-28 15:30 46.47369 49.56066 35192 ft 521 kts 67°
2026-04-28 15:30 46.50330 49.65656 35205 ft 521 kts 67°
2026-04-28 15:31 46.53291 49.75254 35201 ft 521 kts 67°
2026-04-28 15:31 46.56274 49.84848 35202 ft 521 kts 67°
2026-04-28 15:32 46.59246 49.94447 35201 ft 521 kts 67°
2026-04-28 15:32 46.62201 50.04076 35196 ft 521 kts 67°
2026-04-28 15:33 46.65153 50.13717 35199 ft 521 kts 67°
2026-04-28 15:33 46.67995 50.23004 35196 ft 521 kts 67°
2026-04-28 15:34 46.70606 50.31579 35198 ft 521 kts 67°
2026-04-28 15:34 46.71041 50.33014 35195 ft 521 kts 68°
2026-04-28 15:35 46.71483 50.34473 35197 ft 521 kts 68°
2026-04-28 15:35 46.75166 50.46940 35174 ft 503 kts 67°
2026-04-28 15:36 46.78015 50.56155 35187 ft 493 kts 67°
2026-04-28 15:36 46.80789 50.65264 35185 ft 495 kts 68°
2026-04-28 15:37 46.83566 50.74591 35182 ft 507 kts 68°
2026-04-28 15:37 46.86399 50.84135 35180 ft 516 kts 68°
2026-04-28 15:38 46.89268 50.93799 35177 ft 519 kts 68°
2026-04-28 15:38 46.92138 51.03498 35173 ft 520 kts 68°
2026-04-28 15:39 46.94996 51.13219 35175 ft 520 kts 68°
2026-04-28 15:39 46.97837 51.22923 35170 ft 520 kts 68°
2026-04-28 15:40 47.00688 51.32655 35171 ft 520 kts 68°
2026-04-28 15:40 47.03526 51.42398 35176 ft 520 kts 68°
2026-04-28 15:41 47.06357 51.52155 35187 ft 520 kts 68°
2026-04-28 15:41 47.09170 51.61910 35196 ft 519 kts 68°
2026-04-28 15:42 47.11971 51.71677 35203 ft 519 kts 69°
2026-04-28 15:42 47.15287 51.81077 35203 ft 519 kts 53°
2026-04-28 15:43 47.20067 51.89001 35202 ft 518 kts 45°
2026-04-28 15:43 47.25007 51.96728 35190 ft 518 kts 46°
2026-04-28 15:44 47.29940 52.04481 35181 ft 519 kts 46°
2026-04-28 15:44 47.34867 52.12251 35174 ft 519 kts 46°
2026-04-28 15:45 47.39786 52.20044 35166 ft 519 kts 46°
2026-04-28 15:45 47.44698 52.27860 35164 ft 519 kts 46°
2026-04-28 15:46 47.49611 52.35678 35159 ft 519 kts 46°
2026-04-28 15:46 47.54528 52.43505 35161 ft 519 kts 46°
2026-04-28 15:47 47.59433 52.51357 35163 ft 519 kts 46°
2026-04-28 15:47 47.64332 52.59218 35166 ft 519 kts 46°
2026-04-28 15:48 47.69227 52.67100 35167 ft 519 kts 46°
2026-04-28 15:48 47.74083 52.74933 35168 ft 519 kts 46°
2026-04-28 15:49 47.78997 52.82902 35165 ft 519 kts 46°
2026-04-28 15:49 47.83840 52.90779 35164 ft 519 kts 47°
2026-04-28 15:50 47.88745 52.98776 35164 ft 519 kts 47°
2026-04-28 15:50 47.93620 53.06729 35164 ft 519 kts 47°
2026-04-28 15:51 47.98452 53.14644 35164 ft 519 kts 47°
2026-04-28 15:51 48.03313 53.22630 35167 ft 519 kts 47°
2026-04-28 15:52 48.08167 53.30630 35166 ft 519 kts 47°
2026-04-28 15:52 48.13013 53.38645 35168 ft 519 kts 47°
2026-04-28 15:53 48.17819 53.46626 35029 ft 495 kts 48°
2026-04-28 15:53 48.20071 53.50374 35500 ft 476 kts 48°
2026-04-28 15:53 48.22238 53.53982 35492 ft 457 kts 48°
2026-04-28 15:54 48.24336 53.57480 35193 ft 447 kts 48°
2026-04-28 15:54 48.26388 53.60906 34971 ft 435 kts 48°
2026-04-28 15:54 48.30373 53.67567 35010 ft 434 kts 48°
2026-04-28 15:55 48.34476 53.74447 35011 ft 449 kts 48°
2026-04-28 15:55 48.38703 53.81561 35011 ft 462 kts 48°
2026-04-28 15:56 48.43024 53.88842 35008 ft 468 kts 48°
2026-04-28 15:56 48.47367 53.96166 35012 ft 469 kts 48°
2026-04-28 15:57 48.51703 54.03518 35008 ft 469 kts 48°
2026-04-28 15:57 48.56029 54.10889 35013 ft 469 kts 49°
2026-04-28 15:58 48.60360 54.18271 35009 ft 469 kts 48°
2026-04-28 15:58 48.64685 54.25648 35008 ft 469 kts 49°
2026-04-28 15:59 48.68996 54.33043 35013 ft 469 kts 49°
2026-04-28 15:59 48.73311 54.40474 35016 ft 469 kts 49°
2026-04-28 16:00 48.77619 54.47901 35015 ft 470 kts 49°
2026-04-28 16:00 48.81926 54.55353 35013 ft 470 kts 49°
2026-04-28 16:01 48.86232 54.62812 35019 ft 470 kts 49°
2026-04-28 16:01 48.90527 54.70276 35016 ft 470 kts 49°
2026-04-28 16:02 48.94824 54.77764 35020 ft 470 kts 49°
2026-04-28 16:02 48.99108 54.85262 35016 ft 470 kts 49°
2026-04-28 16:03 49.03391 54.92779 35019 ft 470 kts 49°
2026-04-28 16:03 49.07674 55.00298 35015 ft 470 kts 49°
2026-04-28 16:04 49.11946 55.07832 35018 ft 470 kts 49°
2026-04-28 16:04 49.16207 55.15400 35018 ft 470 kts 49°
2026-04-28 16:05 49.20466 55.22963 35020 ft 470 kts 49°
2026-04-28 16:05 49.24723 55.30542 35021 ft 470 kts 49°
2026-04-28 16:06 49.28977 55.38128 35015 ft 470 kts 49°
2026-04-28 16:06 49.33226 55.45729 35015 ft 470 kts 49°
2026-04-28 16:07 49.37469 55.53347 35019 ft 470 kts 49°
2026-04-28 16:08 49.43827 55.64788 35017 ft 470 kts 50°
2026-04-28 16:08 49.48060 55.72433 35017 ft 470 kts 50°
2026-04-28 16:09 49.54389 55.83940 35019 ft 470 kts 50°
2026-04-28 16:10 49.60714 55.95472 35018 ft 470 kts 50°
2026-04-28 16:10 49.67028 56.07028 35019 ft 470 kts 50°
2026-04-28 16:11 49.75430 56.22481 35015 ft 470 kts 50°
2026-04-28 16:12 49.81719 56.34102 35019 ft 470 kts 50°
2026-04-28 16:13 49.87998 56.45756 35015 ft 470 kts 50°
2026-04-28 16:14 49.96344 56.61348 35017 ft 470 kts 50°
2026-04-28 16:15 50.04665 56.77000 35017 ft 470 kts 50°
2026-04-28 16:15 50.08820 56.84846 35014 ft 470 kts 50°
2026-04-28 16:16 50.15045 56.96621 35015 ft 470 kts 51°
2026-04-28 16:17 50.20558 57.07118 35020 ft 470 kts 51°
2026-04-28 16:17 50.25737 57.15817 35012 ft 469 kts 37°
2026-04-28 16:18 50.30473 57.19883 35014 ft 468 kts 19°
2026-04-28 16:18 50.36729 57.22700 35008 ft 468 kts 15°
2026-04-28 16:19 50.43012 57.25428 35007 ft 469 kts 15°
2026-04-28 16:19 50.49292 57.28166 35005 ft 469 kts 15°
2026-04-28 16:20 50.55579 57.30919 35010 ft 469 kts 15°
2026-04-28 16:20 50.61867 57.33680 35016 ft 469 kts 15°
2026-04-28 16:21 50.68153 57.36438 35012 ft 469 kts 15°
2026-04-28 16:21 50.74440 57.39210 35012 ft 469 kts 15°
2026-04-28 16:22 50.80732 57.41994 35017 ft 469 kts 15°
2026-04-28 16:22 50.87016 57.44779 35015 ft 469 kts 15°
2026-04-28 16:23 50.93305 57.47570 35020 ft 469 kts 15°
2026-04-28 16:23 50.99586 57.50377 35017 ft 469 kts 15°
2026-04-28 16:24 51.05871 57.53197 35019 ft 469 kts 15°
2026-04-28 16:24 51.12155 57.56013 35016 ft 469 kts 15°
2026-04-28 16:25 51.18438 57.58829 35015 ft 469 kts 15°
2026-04-28 16:25 51.24720 57.61667 35016 ft 469 kts 15°
2026-04-28 16:26 51.31002 57.64511 35015 ft 469 kts 15°
2026-04-28 16:26 51.37286 57.67356 35015 ft 469 kts 15°
2026-04-28 16:27 51.43565 57.70219 35017 ft 469 kts 15°
2026-04-28 16:28 51.52983 57.74524 35017 ft 469 kts 15°
2026-04-28 16:28 51.59259 57.77397 35016 ft 469 kts 15°
2026-04-28 16:29 51.68677 57.81736 35016 ft 469 kts 16°
2026-04-28 16:30 51.78091 57.86082 35016 ft 469 kts 15°
2026-04-28 16:30 51.84364 57.88994 35018 ft 469 kts 16°
2026-04-28 16:31 51.90640 57.91920 35016 ft 469 kts 16°
2026-04-28 16:31 51.96916 57.94838 35015 ft 469 kts 16°
2026-04-28 16:32 52.03191 57.97761 35019 ft 469 kts 16°
2026-04-28 16:32 52.12600 58.02172 35017 ft 469 kts 16°
2026-04-28 16:33 52.17815 58.04633 35014 ft 469 kts 16°
2026-04-28 16:33 52.25140 58.08104 35014 ft 469 kts 16°
2026-04-28 16:34 52.31409 58.11078 35017 ft 469 kts 16°
2026-04-28 16:34 52.37681 58.14049 35014 ft 469 kts 16°
2026-04-28 16:35 52.43952 58.17034 35015 ft 469 kts 16°
2026-04-28 16:35 52.50221 58.20031 35019 ft 469 kts 16°
2026-04-28 16:36 52.56487 58.23040 35017 ft 469 kts 16°
2026-04-28 16:36 52.62755 58.26048 35019 ft 469 kts 16°
2026-04-28 16:37 52.68979 58.29043 35014 ft 469 kts 16°
2026-04-28 16:38 52.78373 58.33602 35017 ft 469 kts 16°
2026-04-28 16:38 52.84634 58.36651 35016 ft 469 kts 16°
2026-04-28 16:39 52.90899 58.39706 35016 ft 469 kts 16°
2026-04-28 16:39 52.97160 58.42766 35016 ft 469 kts 16°
2026-04-28 16:40 53.03416 58.45841 35016 ft 469 kts 16°
2026-04-28 16:40 53.09679 58.48918 35017 ft 469 kts 16°
2026-04-28 16:41 53.15943 58.51999 35015 ft 469 kts 16°
2026-04-28 16:41 53.22204 58.55096 35015 ft 469 kts 16°
2026-04-28 16:42 53.28462 58.58212 35015 ft 469 kts 16°
2026-04-28 16:42 53.34720 58.61321 35014 ft 469 kts 16°
2026-04-28 16:43 53.40975 58.64436 35019 ft 469 kts 16°
2026-04-28 16:43 53.47232 58.67577 35017 ft 469 kts 17°
2026-04-28 16:44 53.53483 58.70722 35016 ft 469 kts 16°
2026-04-28 16:44 53.59739 58.73879 35018 ft 469 kts 17°
2026-04-28 16:45 53.65993 58.77044 35016 ft 469 kts 16°
2026-04-28 16:45 53.72246 58.80204 35016 ft 469 kts 17°
2026-04-28 16:46 53.78497 58.83383 35016 ft 469 kts 17°
2026-04-28 16:46 53.84745 58.86580 35014 ft 469 kts 17°
2026-04-28 16:47 53.90997 58.89783 35016 ft 469 kts 17°
2026-04-28 16:47 53.97204 58.92965 35019 ft 469 kts 17°
2026-04-28 16:48 54.03448 58.96189 35015 ft 469 kts 17°
2026-04-28 16:48 54.09698 58.99424 35014 ft 469 kts 17°
2026-04-28 16:49 54.15945 59.02669 35016 ft 469 kts 17°
2026-04-28 16:49 54.22191 59.05910 35015 ft 469 kts 17°
2026-04-28 16:50 54.28479 59.09183 35016 ft 469 kts 17°
2026-04-28 16:50 54.34718 59.12448 35014 ft 469 kts 17°
2026-04-28 16:51 54.40967 59.15729 35015 ft 469 kts 17°
2026-04-28 16:51 54.47168 59.18990 35017 ft 469 kts 17°
2026-04-28 16:52 54.53408 59.22272 35014 ft 469 kts 17°
2026-04-28 16:52 54.59651 59.25562 35017 ft 469 kts 17°
2026-04-28 16:53 54.65894 59.28869 35015 ft 469 kts 17°
2026-04-28 16:53 54.72130 59.32198 35019 ft 469 kts 17°
2026-04-28 16:54 54.78371 59.35535 35014 ft 469 kts 17°
2026-04-28 16:54 54.84605 59.38897 35017 ft 469 kts 17°
2026-04-28 16:55 54.90832 59.42290 35015 ft 469 kts 17°
2026-04-28 16:55 54.97063 59.45678 35014 ft 469 kts 17°
2026-04-28 16:56 55.03297 59.49053 35016 ft 469 kts 17°
2026-04-28 16:56 55.09535 59.52433 35018 ft 469 kts 17°
2026-04-28 16:57 55.15766 59.55842 35018 ft 469 kts 17°
2026-04-28 16:57 55.21999 59.59251 35018 ft 469 kts 17°
2026-04-28 16:58 55.28228 59.62670 35014 ft 469 kts 17°
2026-04-28 16:58 55.34457 59.66110 35016 ft 469 kts 17°
2026-04-28 16:59 55.40682 59.69557 35016 ft 469 kts 17°
2026-04-28 16:59 55.46909 59.73001 35015 ft 469 kts 17°
2026-04-28 17:00 55.53137 59.76474 35014 ft 469 kts 17°
2026-04-28 17:00 55.59360 59.79944 35014 ft 469 kts 17°
2026-04-28 17:01 55.65586 59.83428 35017 ft 469 kts 17°
2026-04-28 17:01 55.70763 59.86333 35017 ft 469 kts 17°
2026-04-28 17:02 55.76979 59.89838 34793 ft 471 kts 17°
2026-04-28 17:02 55.80104 59.91607 33600 ft 469 kts 17°
2026-04-28 17:02 55.83210 59.93371 32344 ft 470 kts 18°
2026-04-28 17:02 55.86331 59.95146 31109 ft 471 kts 18°
2026-04-28 17:03 55.92576 59.98881 28585 ft 476 kts 23°
2026-04-28 17:03 55.95617 60.01270 27316 ft 478 kts 24°
2026-04-28 17:03 55.98622 60.03643 26202 ft 464 kts 24°
2026-04-28 17:04 56.04247 60.08101 24443 ft 431 kts 24°
2026-04-28 17:04 56.06963 60.10255 23294 ft 423 kts 24°
2026-04-28 17:05 56.12259 60.14465 21115 ft 410 kts 24°
2026-04-28 17:05 56.14845 60.16527 20070 ft 404 kts 24°
2026-04-28 17:05 56.17390 60.18558 19043 ft 397 kts 24°
2026-04-28 17:06 56.22367 60.22529 17013 ft 385 kts 24°
2026-04-28 17:06 56.24800 60.24477 16008 ft 380 kts 24°
2026-04-28 17:06 56.29552 60.28301 14019 ft 369 kts 24°
2026-04-28 17:07 56.31876 60.30175 13012 ft 363 kts 24°
2026-04-28 17:07 56.34177 60.32030 12526 ft 364 kts 24°
2026-04-28 17:07 56.36485 60.33890 12147 ft 363 kts 24°
2026-04-28 17:07 56.38783 60.35744 11734 ft 360 kts 24°
2026-04-28 17:08 56.41063 60.37589 11326 ft 358 kts 24°
2026-04-28 17:08 56.43335 60.39426 10903 ft 356 kts 24°
2026-04-28 17:08 56.45582 60.41262 10489 ft 354 kts 26°
2026-04-28 17:08 56.47624 60.43709 10065 ft 351 kts 42°
2026-04-28 17:09 56.49203 60.47037 9638 ft 349 kts 58°
2026-04-28 17:09 56.50220 60.50998 9185 ft 346 kts 73°
2026-04-28 17:09 56.50865 60.55129 9001 ft 333 kts 72°
2026-04-28 17:09 56.51680 60.58949 8872 ft 318 kts 67°
2026-04-28 17:10 56.52574 60.62508 8751 ft 304 kts 65°
2026-04-28 17:10 56.53460 60.65891 8621 ft 292 kts 65°
2026-04-28 17:10 56.54315 60.69209 8496 ft 289 kts 65°
2026-04-28 17:10 56.55140 60.72518 8371 ft 288 kts 66°
2026-04-28 17:11 56.55939 60.75825 8244 ft 282 kts 67°
2026-04-28 17:11 56.56693 60.79012 8118 ft 269 kts 67°
2026-04-28 17:11 56.57410 60.82070 7993 ft 258 kts 67°
2026-04-28 17:11 56.58100 60.85037 7867 ft 254 kts 67°
2026-04-28 17:12 56.58783 60.87989 7742 ft 253 kts 68°
2026-04-28 17:12 56.59461 60.90927 7616 ft 252 kts 68°
2026-04-28 17:12 56.60139 60.93863 7442 ft 253 kts 68°
2026-04-28 17:12 56.60815 60.96798 7085 ft 251 kts 68°
2026-04-28 17:13 56.61488 60.99728 6689 ft 251 kts 68°
2026-04-28 17:13 56.62160 61.02663 6280 ft 252 kts 68°
2026-04-28 17:13 56.62834 61.05600 5882 ft 252 kts 68°
2026-04-28 17:13 56.63661 61.08405 5445 ft 253 kts 51°
2026-04-28 17:14 56.64958 61.10546 5022 ft 253 kts 31°
2026-04-28 17:14 56.66575 61.11730 4663 ft 250 kts 11°
2026-04-28 17:14 56.68286 61.11855 4352 ft 245 kts 353°
2026-04-28 17:14 56.69969 61.11553 4054 ft 241 kts 354°
2026-04-28 17:15 56.71609 61.11052 3746 ft 237 kts 335°
2026-04-28 17:15 56.72796 61.09123 3460 ft 230 kts 295°
2026-04-28 17:15 56.73104 61.06354 3288 ft 220 kts 272°
2026-04-28 17:15 56.73190 61.03597 3039 ft 217 kts 273°
2026-04-28 17:16 56.73292 61.00872 2762 ft 213 kts 273°
2026-04-28 17:16 56.73399 60.98265 2504 ft 200 kts 274°
2026-04-28 17:16 56.73500 60.95834 2244 ft 185 kts 274°
2026-04-28 17:16 56.73592 60.93616 2042 ft 163 kts 273°
2026-04-28 17:17 56.73675 60.91641 1764 ft 151 kts 274°
2026-04-28 17:17 56.73749 60.89842 1594 ft 140 kts 272°
2026-04-28 17:17 56.73815 60.88097 1420 ft 137 kts 273°
2026-04-28 17:17 56.73891 60.86360 1255 ft 135 kts 274°
2026-04-28 17:18 56.73966 60.84657 1086 ft 135 kts 273°
2026-04-28 17:18 56.74035 60.82982 890 ft 134 kts 272°
2026-04-28 17:18 56.74099 60.81303 776 ft 122 kts 274°
2026-04-28 17:18 56.74146 60.80090 775 ft 72 kts 274°
2026-04-28 17:19 56.74169 60.79476 775 ft 34 kts 274°
2026-04-28 17:19 56.74183 60.79136 774 ft 8 kts 278°
2026-04-28 17:19 56.74226 60.79095 774 ft 8 kts
2026-04-28 17:19 56.74327 60.79125 774 ft 18 kts
2026-04-28 17:20 56.74387 60.79144 774 ft 0 kts 10°
2026-04-28 17:20 56.74450 60.79166 774 ft 22 kts 13°
2026-04-28 17:21 56.74552 60.79190 774 ft 12 kts
2026-04-28 17:21 56.74633 60.79189 774 ft 13 kts 359°
2026-04-28 17:21 56.74720 60.79188 774 ft 12 kts 360°
2026-04-28 17:22 56.74855 60.79251 775 ft 11 kts 78°
2026-04-28 17:22 56.74857 60.79447 775 ft 18 kts 90°
2026-04-28 17:22 56.74854 60.79677 775 ft 15 kts 93°
2026-04-28 17:23 56.74854 60.80016 775 ft 7 kts 89°
2026-04-28 17:23 56.74884 60.80045 775 ft 5 kts 355°
2026-04-28 17:23 56.74917 60.80045 775 ft 4 kts 360°
2026-04-28 17:23 56.74928 60.80045 775 ft 0 kts